This is the latest recevied weather packets stored in our database for station/object KF0FSA. If no packets are shown the sender has not sent any weather packets the latest 10 day(s).
| Time | Temp. | Humidity | Pressure | Rain* | Wind** | Luminosity | Snow |
|---|---|---|---|---|---|---|---|
| 1777910214 | 17.22° C | 36% | 950.1 hPa | 0 mm | - | 773 W/m² | - |
| 1777909613 | 17.22° C | 36% | 950.1 hPa | 0 mm | - | 723 W/m² | - |
| 1777909310 | 17.22° C | 34% | 950.1 hPa | 0 mm | - | 710 W/m² | - |
| 1777908883 | 16.67° C | 35% | 949.9 hPa | 0 mm | - | 692 W/m² | - |
| 1777908584 | 16.67° C | 36% | 950 hPa | 0 mm | - | 644 W/m² | - |
| 1777908283 | 16.67° C | 37% | 949.9 hPa | 0 mm | - | 667 W/m² | - |
| 1777907980 | 16.67° C | 38% | 949.9 hPa | 0 mm | - | 656 W/m² | - |
| 1777907380 | 16.67° C | 39% | 949.7 hPa | 0 mm | - | 629 W/m² | - |
| 1777907205 | 16.67° C | 39% | 949.8 hPa | 0 mm | - | 546 W/m² | - |
| 1777906780 | 16.11° C | 41% | 949.6 hPa | 0 mm | - | 538 W/m² | - |
| 1777906601 | 16.11° C | 40% | 949.7 hPa | 0 mm | - | 610 W/m² | - |
| 1777906175 | 16.11° C | 41% | 949.7 hPa | 0 mm | - | 303 W/m² | - |
| 1777905269 | 16.11° C | 40% | 949.3 hPa | 0 mm | - | 545 W/m² | - |
| 1777904971 | 15.56° C | 40% | 949.2 hPa | 0 mm | - | 470 W/m² | - |
| 1777904669 | 15.56° C | 40% | 949.2 hPa | 0 mm | - | 537 W/m² | - |
| 1777904068 | 15.56° C | 43% | 949.2 hPa | 0 mm | - | 484 W/m² | - |
| 1777903769 | 15.56° C | 45% | 949.2 hPa | 0 mm | - | 461 W/m² | - |
| 1777903290 | 15.56° C | 52% | 949.1 hPa | 0 mm | - | 331 W/m² | - |
| 1777901664 | 14.44° C | 56% | 948.8 hPa | 0 mm | - | 303 W/m² | - |
| 1777901364 | 14.44° C | 58% | 948.8 hPa | 0 mm | - | 317 W/m² | - |
| 1777901064 | 13.89° C | 59% | 948.8 hPa | 0 mm | - | 294 W/m² | - |
| 1777900762 | 13.89° C | 60% | 948.8 hPa | 0 mm | - | 281 W/m² | - |
| 1777900462 | 13.33° C | 61% | 948.8 hPa | 0 mm | - | 252 W/m² | - |
| 1777900162 | 13.33° C | 61% | 948.7 hPa | 0 mm | - | 146 W/m² | - |
| 1777898354 | 12.78° C | 62% | 948.1 hPa | 0 mm | - | 146 W/m² | - |
* Rain latest hour (hover to see other rain measurements)
** Current wind speed in m/s (hover to see current wind gust speed)